FW5175 Weather Reports


time (UTC)temp
C
wind
direction
speed
KPH
gust
KPH
rain 1hr
cm
rain 24hr
cm
rain mn
cm
humidity
%
barometer
mb
20260509134529 7 172 6.4 14.5 0.05 0.71 0.51 98 1011.3
20260509133029 7 181 8.0 16.1 0.03 0.69 0.48 99 1011.5
20260509131527 6 192 4.8 20.9 0.00 0.66 0.46 99 1011.4
20260509130025 6 162 8.0 16.1 0.03 0.66 0.46 98 1011.5
20260509124524 6 162 8.0 16.1 0.03 0.66 0.46 98 1011.5
20260509123022 6 157 6.4 19.3 0.05 0.66 0.46 98 1011.5
20260509121525 6 171 4.8 17.7 0.10 0.66 0.46 98 1011.8
20260509120019 6 178 6.4 12.9 0.13 0.64 0.43 98 1011.9
20260509114518 6 187 4.8 14.5 0.20 0.64 0.43 98 1012.0
20260509113015 6 183 4.8 12.9 0.23 0.61 0.41 98 1012.1
20260509111514 6 181 4.8 16.1 0.20 0.56 0.36 98 1012.3
20260509110013 6 182 3.2 11.3 0.20 0.51 0.30 98 1012.2
20260509104520 6 175 6.4 14.5 0.18 0.46 0.25 98 1012.1
20260509103017 6 163 4.8 11.3 0.13 0.38 0.18 98 1012.1
20260509101516 6 175 4.8 11.3 0.10 0.36 0.15 97 1011.8
20260509100016 6 171 4.8 11.3 0.10 0.33 0.13 97 1011.9
20260509094516 6 193 3.2 14.5 0.08 0.30 0.10 97 1011.8
20260509093013 6 169 4.8 11.3 0.03 0.25 0.05 97 1011.9
20260509091512 6 147 6.4 16.1 0.03 0.25 0.05 96 1011.9
20260509090010 6 165 4.8 12.9 0.00 0.23 0.03 96 1012.3
20260509084521 6 162 3.2 14.5 0.00 0.23 0.03 96 1012.4
20260509083008 6 168 3.2 9.7 0.00 0.23 0.03 96 1012.4
20260509081509 6 174 4.8 9.7 0.00 0.23 0.03 95 1012.2
20260509080019 6 200 0.0 6.4 0.00 0.23 0.03 95 1012.4
20260509074506 6 200 1.6 4.8 0.00 0.23 0.03 95 1012.4
20260509073009 6 200 1.6 4.8 0.00 0.23 0.03 95 1012.6
20260509071508 6 202 0.0 12.9 0.03 0.23 0.03 94 1012.7
20260509070005 6 235 0.0 6.4 0.03 0.23 0.03 94 1012.8
20260509064508 6 235 1.6 12.9 0.03 0.23 0.03 94 1013.0
20260509063100 6 247 4.8 16.1 0.05 0.23 0.03 94 1013.3
20260509061557 6 239 6.4 19.3 0.03 0.20 0.00 95 1013.6
20260509060054 6 212 3.2 11.3 0.05 0.20 0.00 94 1013.8
20260509054554 6 214 3.2 6.4 0.13 0.20 0.20 94 1013.9
20260509053057 6 195 0.0 3.2 0.15 0.20 0.20 94 1013.9
20260509051559 6 199 1.6 8.0 0.13 0.18 0.18 94 1014.1
20260509050051 6 199 4.8 12.9 0.10 0.15 0.15 94 1014.2
20260509044550 6 221 3.2 12.9 0.05 0.10 0.10 93 1014.2
20260509043050 6 212 3.2 12.9 0.00 0.05 0.05 93 1014.0
20260509041551 6 220 3.2 14.5 0.03 0.05 0.05 93 1014.1
20260509040052 6 226 3.2 12.9 0.03 0.05 0.05 92 1014.0
20260509034551 7 226 4.8 12.9 0.05 0.05 0.05 92 1014.0
20260509033106 7 233 3.2 17.7 0.05 0.05 0.05 91 1014.3
20260509031557 7 228 4.8 12.9 0.03 0.03 0.03 91 1014.3
20260509030057 7 196 6.4 14.5 0.03 0.03 0.03 90 1014.4
20260509024555 7 220 4.8 14.5 0.03 0.13 0.03 89 1014.3
20260509023051 7 220 1.6 9.7 0.00 0.10 0.00 87 1014.2
20260509021552 7 200 3.2 11.3 0.00 0.10 0.00 86 1014.3
20260509020053 7 206 4.8 11.3 0.00 0.10 0.00 86 1014.2
20260509014549 7 191 1.6 9.7 0.00 0.10 0.00 85 1014.1
20260509013051 7 181 1.6 9.7 0.00 0.10 0.00 83 1013.9
20260509011544 8 198 1.6 9.7 0.00 0.10 0.00 82 1013.7
20260509010040 8 189 3.2 8.0 0.00 0.10 0.00 80 1013.7
20260509004540 8 177 4.8 8.0 0.00 0.10 0.00 79 1013.4
20260509003041 8 159 1.6 4.8 0.00 0.10 0.00 78 1013.2
20260509001540 8 160 4.8 9.7 0.00 0.10 0.00 74 1013.3
20260509000039 8 160 1.6 9.7 0.00 0.10 0.00 72 1013.0
20260508234539 9 164 1.6 8.0 0.00 0.10 0.00 69 1013.2
20260508233106 9 106 3.2 9.7 0.00 0.10 0.00 66 1013.0
20260508231556 10 103 3.2 6.4 0.00 0.10 0.00 63 1012.9
20260508230057 10 101 3.2 4.8 0.00 0.10 0.00 61 1012.8
20260508224610 10 100 1.6 6.4 0.00 0.10 0.00 59 1012.9
20260508223038 11 97 3.2 8.0 0.00 0.10 0.00 59 1012.8
20260508221538 11 230 6.4 17.7 0.00 0.10 0.00 54 1012.8
20260508220037 11 57 4.8 14.5 0.00 0.10 0.00 55 1012.8
20260508214538 11 226 6.4 14.5 0.00 0.10 0.00 54 1012.7
20260508213037 11 191 6.4 16.1 0.00 0.10 0.00 55 1012.8
20260508211538 11 234 8.0 12.9 0.00 0.10 0.00 56 1012.9
20260508210031 11 257 8.0 17.7 0.00 0.10 0.00 57 1012.8
20260508204529 10 214 4.8 14.5 0.00 0.10 0.00 61 1013.1
20260508203029 10 251 8.0 20.9 0.00 0.10 0.00 61 1013.4
20260508201529 10 235 6.4 14.5 0.00 0.10 0.00 61 1013.3
20260508200029 10 235 8.0 14.5 0.00 0.10 0.00 64 1013.5
20260508194524 9 243 4.8 14.5 0.00 0.10 0.00 64 1013.5
20260508193018 8 181 1.6 8.0 0.00 0.10 0.00 66 1013.9
20260508191520 8 236 0.0 6.4 0.00 0.10 0.00 69 1014.1
20260508190018 8 236 0.0 14.5 0.00 0.10 0.00 69 1014.0
20260508184514 8 235 3.2 8.0 0.00 0.10 0.00 70 1014.3
20260508183019 8 317 3.2 9.7 0.00 0.10 0.00 70 1014.3
20260508181516 7 267 3.2 9.7 0.00 0.10 0.00 72 1014.4
20260508180017 7 245 4.8 12.9 0.00 0.10 0.00 74 1014.5
20260508174512 6 231 1.6 9.7 0.00 0.10 0.00 76 1014.5
20260508173008 6 305 4.8 14.5 0.00 0.10 0.00 75 1014.8
20260508171520 6 258 3.2 16.1 0.00 0.10 0.00 76 1014.7
20260508170006 6 231 1.6 14.5 0.00 0.10 0.00 77 1014.7
20260508164505 6 19 6.4 17.7 0.00 0.10 0.00 78 1014.7
20260508163007 6 280 9.7 22.5 0.00 0.10 0.00 77 1014.8
20260508161505 5 251 6.4 24.1 0.00 0.10 0.00 82 1015.0
20260508160007 4 274 4.8 11.3 0.00 0.10 0.00 84 1015.1
20260508154502 4 285 3.2 12.9 0.00 0.10 0.00 84 1014.8
20260508153059 4 296 4.8 17.7 0.00 0.10 0.00 83 1014.6
20260508151602 5 258 3.2 17.7 0.00 0.10 0.00 82 1014.6
20260508150057 5 242 9.7 17.7 0.00 0.10 0.00 80 1014.5
20260508144555 5 251 8.0 19.3 0.00 0.10 0.00 82 1014.3
20260508143100 5 280 8.0 17.7 0.00 0.10 0.00 83 1014.3
20260508141555 5 260 8.0 14.5 0.00 0.10 0.00 83 1013.9
20260508140057 4 253 9.7 17.7 0.00 0.10 0.00 85 1014.0